VJC206 VVTS-VVTH

Flight info

Callsign VJC206
Flight time 0h 47m
Altitude 29000
Route BIXEX5C BIXEX DCT LKH W15 CRA W2 KARAN KARAN1G
Aircraft A21N/M-SDE2E3FGHIRWXY/LB1

Departure

Time 2026-05-04 08:40
Airport Tan Son Nhat International Airport (VVTS)

Arrival

Time 2026-05-04 09:28
Airport Dong Tac Airport (VVTH)
Time Latitude Longitude Altitude Speed Heading
2026-05-04 08:12 10.81532 106.65701 42 ft 0 kts 339°
2026-05-04 08:33 10.81561 106.65690 44 ft 5 kts 339°
2026-05-04 08:33 10.81604 106.65703 41 ft 8 kts 43°
2026-05-04 08:35 10.81968 106.66353 43 ft 24 kts 68°
2026-05-04 08:35 10.82029 106.66517 42 ft 26 kts 69°
2026-05-04 08:35 10.82096 106.66689 42 ft 28 kts 73°
2026-05-04 08:35 10.82167 106.66878 44 ft 30 kts 68°
2026-05-04 08:37 10.82272 106.67002 44 ft 0 kts 338°
2026-05-04 08:40 10.81102 106.63550 585 ft 181 kts 245°
2026-05-04 08:40 10.80616 106.62335 1036 ft 187 kts 247°
2026-05-04 08:40 10.80135 106.61087 1510 ft 194 kts 247°
2026-05-04 08:41 10.79642 106.59792 1883 ft 204 kts 248°
2026-05-04 08:41 10.79110 106.58393 2232 ft 215 kts 248°
2026-05-04 08:41 10.78564 106.56963 2593 ft 224 kts 248°
2026-05-04 08:41 10.77995 106.55470 3091 ft 228 kts 249°
2026-05-04 08:42 10.77418 106.53953 3576 ft 233 kts 248°
2026-05-04 08:42 10.76773 106.52388 4018 ft 246 kts 238°
2026-05-04 08:42 10.75527 106.51187 4491 ft 253 kts 202°
2026-05-04 08:42 10.73808 106.50903 5087 ft 253 kts 168°
2026-05-04 08:43 10.72202 106.51593 5622 ft 258 kts 138°
2026-05-04 08:43 10.71168 106.53089 6065 ft 265 kts 106°
2026-05-04 08:43 10.71058 106.54957 6677 ft 268 kts 81°
2026-05-04 08:43 10.71459 106.56821 7345 ft 271 kts 77°
2026-05-04 08:44 10.71890 106.58698 8011 ft 274 kts 77°
2026-05-04 08:44 10.72300 106.60609 8671 ft 277 kts 78°
2026-05-04 08:46 10.71918 106.75954 11420 ft 355 kts 92°
2026-05-04 08:46 10.71796 106.78478 12001 ft 358 kts 92°
2026-05-04 08:46 10.71675 106.81016 12551 ft 362 kts 92°
2026-05-04 08:46 10.71552 106.83587 13108 ft 366 kts 92°
2026-05-04 08:47 10.71510 106.86190 13657 ft 370 kts 90°
2026-05-04 08:47 10.71514 106.88830 14111 ft 374 kts 90°
2026-05-04 08:47 10.71520 106.91491 14616 ft 377 kts 90°
2026-05-04 08:47 10.71518 106.94129 15126 ft 380 kts 90°
2026-05-04 08:48 10.71517 106.96822 15636 ft 382 kts 90°
2026-05-04 08:48 10.71520 106.99545 16143 ft 385 kts 91°
2026-05-04 08:48 10.71517 107.02280 16646 ft 388 kts 91°
2026-05-04 08:48 10.71517 107.05037 17128 ft 391 kts 91°
2026-05-04 08:49 10.71519 107.07811 17654 ft 392 kts 91°
2026-05-04 08:50 10.71515 107.24740 20145 ft 408 kts 91°
2026-05-04 08:50 10.71512 107.27630 20530 ft 411 kts 91°
2026-05-04 08:51 10.71516 107.30549 20901 ft 414 kts 90°
2026-05-04 08:51 10.71835 107.33478 21286 ft 418 kts 78°
2026-05-04 08:51 10.72596 107.36345 21649 ft 422 kts 75°
2026-05-04 08:51 10.73440 107.39209 22009 ft 425 kts 74°
2026-05-04 08:52 10.74286 107.42103 22363 ft 427 kts 74°
2026-05-04 08:52 10.75129 107.45009 22722 ft 430 kts 75°
2026-05-04 08:52 10.75970 107.47939 23078 ft 432 kts 74°
2026-05-04 08:52 10.76803 107.50848 23417 ft 435 kts 75°
2026-05-04 08:53 10.77652 107.53820 23712 ft 437 kts 75°
2026-05-04 08:54 10.83659 107.74960 25737 ft 452 kts 75°
2026-05-04 08:55 10.84535 107.78046 26021 ft 454 kts 75°
2026-05-04 08:55 10.85414 107.81141 26298 ft 456 kts 75°
2026-05-04 08:55 10.86298 107.84251 26568 ft 458 kts 75°
2026-05-04 08:55 10.87175 107.87342 26831 ft 460 kts 75°
2026-05-04 08:57 10.94372 108.08876 28887 ft 468 kts 52°
2026-05-04 09:01 11.26627 108.43466 28869 ft 482 kts 47°
2026-05-04 09:01 11.31226 108.48406 28875 ft 481 kts 47°
2026-05-04 09:02 11.35832 108.53360 28875 ft 481 kts 47°
2026-05-04 09:02 11.40446 108.58318 28872 ft 481 kts 47°
2026-05-04 09:03 11.45032 108.63250 28886 ft 481 kts 47°
2026-05-04 09:03 11.49648 108.68224 28887 ft 482 kts 47°
2026-05-04 09:04 11.54232 108.73158 28880 ft 482 kts 47°
2026-05-04 09:04 11.58844 108.78126 28896 ft 481 kts 48°
2026-05-04 09:05 11.63452 108.83096 28897 ft 481 kts 47°
2026-05-04 09:05 11.68052 108.88062 28889 ft 481 kts 47°
2026-05-04 09:06 11.72624 108.93000 28899 ft 481 kts 47°
2026-05-04 09:08 11.91024 109.12900 28893 ft 481 kts 48°
2026-05-04 09:08 11.95672 109.17794 28872 ft 481 kts 43°
2026-05-04 09:08 11.98421 109.19754 28871 ft 483 kts 30°
2026-05-04 09:09 12.01555 109.21033 28872 ft 487 kts 16°
2026-05-04 09:09 12.04906 109.21542 28875 ft 488 kts
2026-05-04 09:09 12.08301 109.21377 28880 ft 489 kts 355°
2026-05-04 09:10 12.15028 109.20766 28885 ft 487 kts 355°
2026-05-04 09:10 12.21677 109.20205 28229 ft 470 kts 355°
2026-05-04 09:10 12.24924 109.19854 27395 ft 469 kts 353°
2026-05-04 09:11 12.28132 109.19465 26597 ft 469 kts 353°
2026-05-04 09:11 12.31363 109.19065 25959 ft 464 kts 353°
2026-05-04 09:11 12.34547 109.18654 25237 ft 460 kts 353°
2026-05-04 09:11 12.37770 109.18308 24123 ft 468 kts 355°
2026-05-04 09:12 12.40585 109.18043 23375 ft 469 kts 355°
2026-05-04 09:12 12.43818 109.17735 22655 ft 463 kts 355°
2026-05-04 09:14 12.65371 109.15617 17668 ft 427 kts 355°
2026-05-04 09:14 12.68318 109.15354 16914 ft 420 kts 356°
2026-05-04 09:14 12.71218 109.15111 16136 ft 415 kts 356°
2026-05-04 09:14 12.74089 109.14870 15351 ft 411 kts 356°
2026-05-04 09:15 12.76915 109.14630 14652 ft 405 kts 356°
2026-05-04 09:15 12.79678 109.14393 13928 ft 401 kts 355°
2026-05-04 09:15 12.82443 109.14155 13182 ft 396 kts 356°
2026-05-04 09:15 12.85172 109.14127 12496 ft 388 kts
2026-05-04 09:17 13.02946 109.18438 9303 ft 286 kts 30°
2026-05-04 09:18 13.04660 109.19440 8793 ft 282 kts 32°
2026-05-04 09:18 13.06342 109.20452 8268 ft 279 kts 32°
2026-05-04 09:18 13.08017 109.21453 7799 ft 278 kts 32°
2026-05-04 09:18 13.09687 109.22442 7401 ft 276 kts 32°
2026-05-04 09:19 13.11341 109.23416 7016 ft 273 kts 31°
2026-05-04 09:19 13.12988 109.24384 6629 ft 272 kts 31°
2026-05-04 09:19 13.14626 109.25344 6261 ft 270 kts 31°
2026-05-04 09:19 13.15702 109.25975 6000 ft 269 kts 31°
2026-05-04 09:20 13.17862 109.27243 5487 ft 266 kts 31°
2026-05-04 09:20 13.18924 109.27866 5226 ft 266 kts 31°
2026-05-04 09:20 13.21014 109.29089 4989 ft 253 kts 31°
2026-05-04 09:20 13.22028 109.29682 4971 ft 243 kts 31°
2026-05-04 09:21 13.23936 109.30796 4973 ft 237 kts 31°
2026-05-04 09:21 13.25349 109.31623 4782 ft 232 kts 32°
2026-05-04 09:21 13.26576 109.32670 4364 ft 230 kts 57°
2026-05-04 09:21 13.26999 109.33660 4081 ft 230 kts 79°
2026-05-04 09:22 13.26852 109.35279 3646 ft 233 kts 110°
2026-05-04 09:22 13.26056 109.36741 3277 ft 234 kts 120°
2026-05-04 09:22 13.25198 109.38130 3030 ft 225 kts 119°
2026-05-04 09:22 13.24400 109.39450 2961 ft 212 kts 118°
2026-05-04 09:23 13.23642 109.40739 2962 ft 210 kts 118°
2026-05-04 09:23 13.22725 109.41897 2972 ft 215 kts 139°
2026-05-04 09:23 13.21406 109.42498 2997 ft 200 kts 169°
2026-05-04 09:23 13.20030 109.42311 2988 ft 204 kts 197°
2026-05-04 09:25 13.12516 109.37907 1469 ft 151 kts 206°
2026-05-04 09:25 13.11593 109.37364 1257 ft 155 kts 208°
2026-05-04 09:26 13.10659 109.36816 1084 ft 151 kts 208°
2026-05-04 09:26 13.09750 109.36280 913 ft 147 kts 208°
2026-05-04 09:26 13.08883 109.35771 716 ft 147 kts 207°
2026-05-04 09:26 13.07969 109.35232 535 ft 151 kts 208°
2026-05-04 09:27 13.07059 109.34681 309 ft 152 kts 208°
2026-05-04 09:27 13.06131 109.34148 101 ft 153 kts 206°
2026-05-04 09:27 13.05254 109.33642 28 ft 124 kts 212°
2026-05-04 09:27 13.04640 109.33286 24 ft 86 kts 211°
2026-05-04 09:28 13.04216 109.33051 24 ft 53 kts 194°
2026-05-04 09:28 13.03959 109.33028 25 ft 29 kts 177°
2026-05-04 09:28 13.03817 109.33159 24 ft 30 kts 117°
2026-05-04 09:28 13.03742 109.33328 24 ft 28 kts 50°
2026-05-04 09:29 13.03907 109.33430 24 ft 29 kts 28°
2026-05-04 09:29 13.03990 109.33478 24 ft 31 kts 30°
2026-05-04 09:29 13.04186 109.33593 24 ft 34 kts 29°
2026-05-04 09:29 13.04396 109.33716 24 ft 36 kts 30°
2026-05-04 09:30 13.04615 109.33847 25 ft 38 kts 29°
2026-05-04 09:30 13.04845 109.33982 25 ft 33 kts 31°
2026-05-04 09:30 13.05039 109.34094 25 ft 33 kts 41°
2026-05-04 09:30 13.05019 109.34214 25 ft 15 kts 79°
2026-05-04 09:31 13.05021 109.34291 27 ft 0 kts 120°
2026-05-04 09:31 13.05015 109.34300 27 ft 0 kts 118°